This is the latest recevied weather packets stored in our database for station/object LU4EGV-13. If no packets are shown the sender has not sent any weather packets the latest 1 day(s).
| Time | Temp. | Humidity | Pressure | Rain* | Wind** | Luminosity | Snow |
|---|---|---|---|---|---|---|---|
| 1778097494 | 25° C | 73% | 1001.7 hPa | 0 mm | - | - | - |
| 1778096887 | 26.67° C | 73% | 1002 hPa | 0 mm | - | - | - |
| 1778095068 | 26.67° C | 68% | 1002.2 hPa | 0 mm | - | - | - |
| 1778093864 | 26.67° C | 71% | 1002.7 hPa | - | - | - | - |
| 1778092902 | 27.22° C | 70% | 1002.8 hPa | 0 mm | - | - | - |
| 1778090480 | 25.56° C | 73% | 1003.5 hPa | 0 mm | - | - | - |
| 1778088052 | 28.33° C | 67% | 1004.3 hPa | 0 mm | - | - | - |
| 1778087457 | 27.22° C | 71% | 1004.4 hPa | 0 mm | - | - | - |
| 1778086840 | 26.67° C | 76% | 1004.6 hPa | 0 mm | - | - | - |
| 1778085028 | 23.33° C | 92% | 1005.6 hPa | 0 mm | - | - | - |
| 1778084423 | 22.78° C | 90% | 1005.8 hPa | 0 mm | - | - | - |
| 1778082597 | 22.22° C | 91% | 1006.4 hPa | 0 mm | - | - | - |
| 1778081991 | 21.67° C | 92% | 1006.7 hPa | 0 mm | - | - | - |
| 1778080172 | 20.56° C | 92% | 1007.3 hPa | 0.25 mm | - | - | - |
| 1778079566 | 20.56° C | 92% | 1007.2 hPa | 0.25 mm | - | - | - |
| 1778078960 | 20.56° C | 91% | 1007.4 hPa | 0.25 mm | - | - | - |
| 1778077141 | 21.11° C | 88% | 1007.5 hPa | 0 mm | - | - | - |
| 1778075929 | 21.67° C | 89% | 1007.4 hPa | 0 mm | - | - | - |
| 1778075323 | 21.67° C | 90% | 1007.9 hPa | 0 mm | - | - | - |
| 1778074121 | 21.67° C | 92% | 1008.2 hPa | 0 mm | - | - | - |
| 1778072292 | 20.56° C | 93% | 1008.6 hPa | 0 mm | - | - | - |
| 1778069266 | 20° C | 94% | 1009.3 hPa | 0 mm | - | - | - |
| 1778068655 | 20° C | 94% | 1009.3 hPa | 0 mm | - | - | - |
| 1778067443 | 19.44° C | 95% | 1009.1 hPa | 0 mm | - | - | - |
| 1778065650 | 18.89° C | 96% | 1008.8 hPa | 0 mm | - | - | - |
* Rain latest hour (hover to see other rain measurements)
** Current wind speed in m/s (hover to see current wind gust speed)